Weather History for Stockton, CA

Change the Weather History Date:

Thursday, October 18, 2012

  Actual Average Record
Temperature  
Mean Temperature 72 °F -  
Max Temperature 91 °F 77 °F 92 °F (1961)
Min Temperature 53 °F 49 °F 40 °F (1998)
Degree Days  
Heating Degree Days 0 3  
Month to date heating degree days 19 30  
Since 1 July heating degree days 19 36  
Cooling Degree Days 7 1  
Month to date cooling degree days 69 47  
Year to date cooling degree days 1363 1313  
Growing Degree Days 22 (Base 50)    
Moisture  
Dew Point 50 °F    
Average Humidity 51    
Maximum Humidity 77    
Minimum Humidity 24    
Precipitation  
Precipitation 0.00 in 0.03 in 0.23 in (1953)
Month to date precipitation 0.02 0.35  
Year to date precipitation 6.50 9.68  
Since 1 July precipitation 0.03 0.65  
Snow  
Snow 0.00 in - 0.00 in (2002)
Month to date snowfall 0.0  
Since 1 July snowfall 0.0  
Since 1 September snowfall 0.0  
Snow Depth -    
Sea Level Pressure  
Sea Level Pressure 29.94 in    
Wind  
Wind Speed 3 mph (NNE)    
Max Wind Speed 9 mph    
Max Gust Speed 14 mph    
Visibility 10 miles    
Events      
T = Trace of Precipitation, MM = Missing Value Source: NWS Daily Summary

Daily Weather History Graph

Daily Weather History Graph

Search for Another Location

Airport:

Trip Planner

Search our weather history database for the weather conditions in past years. The results will help you decide how hot, cold, wet, or windy it might be!

Date:

Astronomy

Oct. 18, 2012 Rise Set
Actual Time 7:16 AM PDT 6:22 PM PDT
Civil Twilight 6:50 AM PDT 6:48 PM PDT
Nautical Twilight 6:19 AM PDT 7:19 PM PDT
Astronomical Twilight 5:49 AM PDT 7:49 PM PDT
Moon 11:00 AM PDT (10/18) 9:05 PM PDT (10/18)
Length of Visible Light 11h 58m
Length of Day
11h 05m
Waxing Crescent, 15% of the Moon is Illuminated
Oct 18
Waxing Crescent
Oct 21
First Quarter
Oct 29
Full
Nov 6
Last Quarter
Nov 13
New

Hourly Weather History & Observations

Time (PDT) Temp. Heat Index Dew Point Humidity Pressure Visibility Wind Dir Wind Speed Gust Speed Precip Events Conditions
12:55 AM 61.0 °F - 43.0 °F 52% 29.88 in 10.0 mi Calm Calm - N/A   Clear
1:55 AM 60.1 °F - 46.0 °F 60% 29.90 in 10.0 mi East 3.5 mph - N/A   Clear
2:55 AM 59.0 °F - 45.0 °F 60% 29.90 in 10.0 mi ENE 3.5 mph - N/A   Clear
3:55 AM 55.9 °F - 42.1 °F 60% 29.89 in 10.0 mi Calm Calm - N/A   Clear
4:55 AM 55.0 °F - 46.9 °F 74% 29.90 in 10.0 mi Calm Calm - N/A   Clear
5:55 AM 55.9 °F - 48.9 °F 77% 29.92 in 10.0 mi Calm Calm - N/A   Clear
6:55 AM 53.1 °F - 44.1 °F 71% 29.93 in 10.0 mi Calm Calm - N/A   Clear
7:55 AM 55.9 °F - 48.0 °F 75% 29.95 in 6.0 mi Calm Calm - N/A   Haze
8:55 AM 62.1 °F - 50.0 °F 65% 29.96 in 8.0 mi ESE 3.5 mph - N/A   Clear
9:55 AM 69.1 °F - 50.0 °F 51% 29.97 in 8.0 mi Calm Calm - N/A   Clear
10:55 AM 75.9 °F - 50.0 °F 40% 29.97 in 9.0 mi Calm Calm - N/A   Clear
11:55 AM 80.1 °F 80.0 °F 54.0 °F 40% 29.97 in 9.0 mi Calm Calm - N/A   Clear
12:55 PM 84.0 °F 82.5 °F 53.1 °F 34% 29.95 in 10.0 mi ESE 4.6 mph - N/A   Clear
1:55 PM 87.1 °F - 51.1 °F 29% 29.93 in 10.0 mi SSE 5.8 mph - N/A   Clear
2:55 PM 88.0 °F - 51.1 °F 28% 29.92 in 10.0 mi Calm Calm - N/A   Clear
3:55 PM 89.1 °F - 48.9 °F 25% 29.92 in 10.0 mi Calm Calm - N/A   Clear
4:55 PM 89.1 °F - 48.0 °F 24% 29.92 in 10.0 mi West 6.9 mph - N/A   Clear
5:55 PM 86.0 °F - 50.0 °F 29% 29.92 in 10.0 mi NW 9.2 mph - N/A   Clear
6:55 PM 80.1 °F - 48.9 °F 34% 29.93 in 10.0 mi WNW 6.9 mph - N/A   Clear
7:55 PM 77.0 °F - 51.1 °F 40% 29.95 in 10.0 mi NW 11.5 mph - N/A   Clear
8:55 PM 73.0 °F - 52.0 °F 48% 29.96 in 10.0 mi North 8.1 mph - N/A   Clear
9:55 PM 69.1 °F - 53.1 °F 57% 29.98 in 10.0 mi North 8.1 mph - N/A   Clear
10:55 PM 66.0 °F - 55.9 °F 70% 30.00 in 10.0 mi NNE 9.2 mph - N/A   Clear
11:55 PM 64.9 °F - 59.0 °F 81% 30.00 in 10.0 mi NNE 10.4 mph - N/A   Clear